Regional Weather Roundup
Issued by NWS

Home | Current Version | Previous Version | Graphics & Text | Print | Product List | Glossary On
Versions: 1 2 3 4 5 6 7 8 9 10 11 12 13 14 15 16 17 18 19 20 21 22 23 24 25 26 27 28 29 30 31 32 33 34 35 36 37 38 39 40 41 42 43 44 45 46 47 48 49 50
000
ASUS43 KDTX 211910
RWRMI
MICHIGAN HOURLY REGIONAL WEATHER ROUNDUP
NATIONAL WEATHER SERVICE DETROIT/PONTIAC MI
300 PM EDT FRI JUL 21 2017

NOTE: "FAIR" INDICATES FEW OR NO CLOUDS BELOW 12,000 FEET WITH NO
SIGNIFICANT WEATHER AND/OR OBSTRUCTION TO VISIBILITY.

MIZ047>049-052>055-059>063-066>070-074>076-081>083-212000-
SOUTHEAST LOWER MICHIGAN

CITY           SKY/WX    TMP DP  RH WIND       PRES   REMARKS
ADRIAN         MOSUNNY   86  67  52 VRB7      29.99F
ALMA           PTSUNNY   85  65  51 SW7       29.98S
ANN ARBOR      MOSUNNY   86  66  51 S5        29.98F
BAD AXE        MOSUNNY   84  63  49 CALM      29.97F
CARO           CLOUDY    87  63  44 CALM      29.96F
DETROIT CITY   CLOUDY    84  64  50 E7        29.97F
DETROIT        CLOUDY    88  68  51 SW7       29.98S HX  91
FLINT          MOSUNNY   84  65  52 CALM      29.98F
GROSSE ILE     CLOUDY    85  69  58 SW6       29.96F
HILLSDALE      CLOUDY    86  64  48 SW7       30.00F
HOWELL         CLOUDY    83  64  51 CALM      30.00S

CITY           SKY/WX    TMP DP  RH WIND       PRES   REMARKS
JACKSON        MOSUNNY   88  63  43 CALM      29.99F
LAMBERTVILLE   SUNNY     85  66  53 E3        29.97F
LANSING        CLOUDY    87  65  47 NW5       29.99F
LAPEER         FAIR      85  61  44 W7        29.98F
MASON          CLOUDY    81  66  59 CALM      30.00S
MONROE         MOSUNNY   85  67  55 E3        29.97S
MT. CLEMENS    CLOUDY    82  66  59 SE7       29.96F
PONTIAC        CLOUDY    85  62  46 VRB3      29.97F
PORT HOPE        N/A     75  66  73 E8        29.97F
PORT HURON     CLOUDY    84  63  48 CALM      29.97F
TRI CITIES     MOSUNNY   86  68  54 SW13      29.97F
MIDLAND        FAIR      87  67  50 SW8       29.95F HX  90
TROY           CLOUDY    86  59  39 CALM      29.99F
SAGINAW HB     MOSUNNY   84  64  51 SW8       29.96F
$$
MIZ043>046-050>051-056>058-064>065-071>073-077>080-212000-
SOUTHWEST LOWER MICHIGAN

CITY           SKY/WX    TMP DP  RH WIND       PRES   REMARKS
BATTLE CREEK   MOSUNNY   86  66  51 VRB6      30.00F
BENTON HARBOR  MOSUNNY   87  66  49 SE7       29.97F
BIG RAPIDS     MOSUNNY   89  51  27 W7        29.97S
COLDWATER      SUNNY     84  66  53 S5        30.00F
FREMONT        FAIR      88  60  38 W9        29.97S
HOLLAND        MOSUNNY   85  69  58 MISG      29.98F
GRAND RAPIDS   PTSUNNY   84  69  60 S8        29.98F
IONIA          FAIR      83  65  54 S3        29.98F
KALAMAZOO      MOSUNNY   87  63  44 S7        29.99F
LUDINGTON      CLOUDY    81  66  59 CALM      29.96F
MARSHALL       MOSUNNY   84  66  53 CALM      29.99F
MOUNT PLEASANT MOSUNNY   90  60  36 SW6       29.96S HX  90
MUSKEGON       CLOUDY    81  70  69 SW7       29.98F
SOUTH HAVEN    MOSUNNY   83  73  71 CALM      29.98F HX  90
$$
MIZ016>042-212000-
NORTHERN LOWER MICHIGAN

CITY           SKY/WX    TMP DP  RH WIND       PRES   REMARKS
ALPENA         MOSUNNY   86  60  41 VRB5      29.96S
BEAVER ISLAND  PTSUNNY   78  67  68 W5        29.97F
BELLAIRE       CLOUDY    81  60  48 NW5       29.97S
CADILLAC       CLOUDY    85  59  41 NW7       29.99S
CHARLEVOIX     CLOUDY    75  67  75 NW5       30.00F
FRANKFORT      CLOUDY    78  68  72 CALM      29.97F
GAYLORD        MOSUNNY   83  56  39 W9        29.99F
GRAYLING       CLOUDY    85  56  37 NW8       29.99S
HARBOR SPRINGS CLOUDY    71  68  90 SW7       29.98S
HOUGHTON LAKE  CLOUDY    84  60  44 CALM      29.99F
MANISTEE       CLOUDY    82  66  58 W6        29.96F
OSCODA         CLOUDY    82  58  45 SE8G16    29.95F
PELLSTON       CLOUDY    81  63  54 NW12      29.97F
ROGERS CITY    CLOUDY    75  64  69 N6        29.98F
TRAVERSE CITY  CLOUDY    83  65  54 NE10      29.95S
$$
MIZ007>008-015-212000-
EASTERN UPPER MICHIGAN

CITY           SKY/WX    TMP DP  RH WIND       PRES   REMARKS
KINROSS        PTSUNNY   79  64  60 SW10G18   29.96F
MACKINAC ISLAN MOSUNNY   75  67  76 W10       29.97F
NEWBERRY       MOSUNNY   79  63  58 W7        29.96F
S. S. MARIE    SUNNY     81  62  52 NW8       29.95S
MUNISING         N/A     70  64  81 NE12      29.96F
$$
MIZ004>006-011>014-085-212000-
CENTRAL UPPER MICHIGAN

CITY           SKY/WX    TMP DP  RH WIND       PRES   REMARKS
MANISTIQUE     MOSUNNY   80  67  65 S3        29.95F
ESCANABA       CLOUDY    81  68  64 SE6       29.94F
MENOMINEE      CLOUDY    84  67  56 SW7       29.95F
SAWYER-GWINN   SUNNY     79  59  50 W5        29.97F
$$
MIZ001>003-009>011-084-212000-
WESTERN UPPER MICHIGAN

CITY           SKY/WX    TMP DP  RH WIND       PRES   REMARKS
IRON MOUNTAIN  CLOUDY    87  63  44 SW7       29.95F
HOUGHTON       CLOUDY    74  60  61 N3        29.96F
COPPER HARBOR    N/A     63  54  72 CALM      29.98S
IRONWOOD       CLOUDY    78  69  73 NE5       29.95F
$$

ABBREVIATIONS USED IN REMARKS
   TC - TEMPERATURE IN CELSIUS
  WCI - WIND CHILL INDEX
   HX - HEAT INDEX
  VSB - VISIBILITY





USA.gov is the U.S. government's official web portal to all federal, state and local government web resources and services.